Wind_Speed
22 23 25 23 20 19 19 19 17 15 14 14 15 16 16 17 18 16 16 19 22 25 27 27 29 31 31 30 29 29 29 30 29 29 29 29 29 28 28 28 28 27 27 28 28 30 31 30 28 26 24 22 22 21 20 20 20 18 17 16 15 14 13 12 12 12 12 13 14 14 13 14 13 12 11 10 9 9 9 9 9 9 10 10 10 10
23 27 26 21 18 19 19 18 17 15 15 15 15 16 18 20 21 20 21 23 24 26 28 27 29 32 33 32 30 30 32 33 32 31 31 31 31 31 31 31 31 30 30 29 29 30 31 30 29 27 24 22 21 21 21 21 21 20 18 17 15 14 13 12 13 13 13 14 14 14 14 14 13 12 11 10 9 9 9 9 9 10 10 10 10 11
25 28 24 18 18 20 19 18 16 14 14 14 15 18 20 21 21 22 22 22 22 24 27 27 30 34 34 34 34 34 37 36 34 33 33 33 34 33 32 31 31 32 31 31 29 29 31 31 30 27 24 23 21 21 21 22 22 21 21 20 17 15 14 13 13 13 13 14 15 15 15 15 13 12 11 10 9 9 9 9 9 9 10 10 11 11
26 24 17 14 15 17 19 18 16 15 17 17 18 21 23 22 22 22 22 21 20 22 25 28 33 39 39 39 37 35 34 33 31 30 29 30 31 28 26 26 27 28 28 30 30 29 31 31 30 27 25 24 22 21 21 22 22 22 22 21 19 17 15 14 13 13 15 16 16 16 16 15 14 12 11 10 9 9 9 9 9 10 10 11 11 12
28 23 18 17 15 16 16 16 16 18 19 20 22 24 24 23 21 22 22 20 21 23 25 29 34 41 39 34 33 30 27 27 26 27 27 27 26 25 26 27 26 24 24 26 29 30 31 31 28 26 25 25 23 21 21 22 22 22 23 23 20 17 15 14 14 15 16 17 17 16 16 15 14 12 11 10 9 9 9 9 10 10 10 11 12 13
31 25 22 23 21 20 21 20 19 18 20 22 23 24 23 22 21 21 19 19 22 23 23 24 21 26 32 31 33 34 32 31 31 32 32 30 30 30 30 30 27 25 24 24 26 30 32 31 28 26 26 25 23 22 22 22 22 22 23 23 21 18 16 15 15 16 17 17 17 16 16 14 13 11 10 10 9 9 9 10 10 11 11 12 13 14
33 27 24 24 22 23 24 25 23 21 21 23 25 25 22 22 21 21 19 18 19 17 19 20 14 20 38 44 40 38 36 34 32 32 33 33 33 33 30 29 28 27 27 25 26 28 31 31 28 26 25 24 23 23 22 23 23 22 22 22 20 18 17 16 17 17 18 18 17 16 15 14 12 11 10 10 10 10 10 10 11 11 12 13 14 16
30 26 25 25 23 24 26 26 25 23 23 24 25 24 22 22 21 20 21 20 20 21 21 23 21 24 40 49 44 39 37 34 33 32 31 30 29 28 26 26 27 28 27 26 25 27 29 30 29 27 26 24 23 23 23 23 23 22 22 21 20 19 18 18 17 18 18 18 17 16 15 13 12 11 10 10 10 10 11 11 12 13 14 15 16 17
28 26 24 24 23 24 25 24 23 23 23 24 24 23 22 22 20 20 21 21 23 23 21 23 23 18 30 45 42 37 38 36 33 30 25 22 21 22 23 23 25 27 27 25 23 24 27 29 30 29 27 25 24 23 23 24 23 22 22 22 21 20 19 19 18 19 19 18 18 16 15 13 12 11 11 11 11 11 12 12 13 14 15 17 18 19
28 27 26 25 26 26 25 22 21 22 23 24 23 23 22 20 20 19 20 22 21 19 20 26 25 16 23 37 34 30 34 33 29 27 23 20 18 18 19 20 23 25 25 23 20 20 23 27 29 29 27 26 24 24 24 24 23 23 23 22 21 21 20 20 20 20 20 19 17 16 15 14 13 12 12 11 11 12 13 14 15 16 17 19 20 21
32 31 29 28 28 27 26 23 23 23 23 24 23 21 20 19 20 20 20 21 15 13 23 31 31 23 14 15 18 22 28 30 30 30 27 23 19 17 17 18 20 23 24 23 19 18 19 24 28 28 26 26 25 24 24 24 24 23 23 23 22 21 21 21 21 21 20 19 18 16 15 14 14 13 13 13 13 14 15 16 17 18 19 21 21 22
35 34 33 33 33 30 28 26 26 26 25 25 23 22 18 14 13 14 15 13 5 8 21 24 22 23 19 14 17 24 30 31 30 29 26 23 20 18 17 17 18 20 23 24 22 20 20 22 25 26 25 25 25 24 24 24 24 23 23 23 22 21 21 21 21 21 20 19 18 17 15 15 14 14 14 14 15 16 17 18 20 20 21 22 23 23
36 38 36 33 34 33 30 28 27 28 28 26 24 22 15 6 4 6 4 4 7 11 16 12 8 18 30 33 33 32 31 26 23 25 25 22 20 18 18 19 19 20 22 25 26 25 24 22 22 24 24 24 24 24 24 24 23 23 23 22 22 21 21 20 20 19 19 18 17 16 16 15 15 15 15 15 16 18 19 20 21 22 22 23 24 25
31 32 36 37 36 37 36 34 31 29 29 29 29 26 17 5 1 3 3 3 8 12 14 14 12 16 27 34 34 30 27 22 23 27 26 23 21 20 20 21 21 21 22 25 27 27 26 23 22 24 24 23 23 23 24 23 23 23 22 22 21 20 20 19 19 19 18 17 17 16 16 16 15 16 16 17 19 20 21 22 22 23 23 24 26 26
23 21 29 32 30 31 33 34 35 34 31 30 30 27 23 16 8 5 4 4 4 5 7 11 10 10 15 24 30 29 30 32 33 30 26 26 26 24 23 23 23 22 22 24 26 26 25 24 23 24 24 23 23 24 23 23 23 22 22 21 20 20 19 19 18 18 18 17 17 16 16 16 16 17 18 19 21 22 23 23 23 24 25 26 27 28
23 23 26 24 21 18 15 17 25 31 30 27 25 25 26 26 21 13 7 8 7 6 4 11 15 20 26 35 39 37 38 38 34 31 28 27 26 25 24 22 23 22 21 22 24 25 25 25 24 24 24 24 24 24 23 23 22 22 21 21 20 20 19 19 18 18 18 17 17 17 17 17 18 19 20 21 22 23 24 24 25 26 27 28 29 30
20 23 25 23 23 20 14 13 18 24 24 21 24 29 28 25 24 19 12 10 9 8 7 12 21 31 35 39 39 33 31 29 26 27 26 23 22 23 22 21 22 22 21 20 21 24 25 25 25 24 24 24 23 22 22 22 21 21 21 20 20 20 20 20 19 18 18 18 18 18 18 18 19 20 21 22 23 24 25 26 27 28 29 30 31 32
22 19 19 20 20 20 20 19 19 23 23 21 22 25 24 21 20 17 7 5 3 5 7 12 23 31 27 26 29 27 25 25 24 24 23 22 21 19 18 19 21 21 21 20 20 24 26 25 25 24 23 22 21 21 21 21 21 21 21 21 21 21 20 19 19 18 18 18 18 19 19 20 20 21 22 23 24 25 26 27 29 30 31 32 32 33
27 20 17 20 19 16 19 20 20 23 25 25 22 20 19 15 14 16 10 3 2 3 5 9 20 29 29 30 34 32 27 24 21 19 20 19 17 16 15 17 21 22 21 21 22 24 26 26 25 24 22 21 21 21 21 21 21 21 21 22 21 21 20 20 19 19 19 19 19 20 20 21 21 22 23 24 26 27 28 29 30 31 32 33 34 35
29 22 16 19 21 18 20 24 24 25 26 28 26 22 20 15 12 17 17 8 4 3 5 6 9 17 28 33 29 22 18 16 15 17 20 18 17 17 14 15 21 22 21 21 22 24 26 26 25 24 22 21 20 20 20 20 21 21 21 22 22 21 21 20 20 20 20 20 20 21 21 22 22 24 25 26 28 29 30 31 32 33 34 35 35 36
32 27 18 17 20 22 26 27 27 27 28 31 31 26 26 22 16 15 18 18 12 4 2 4 6 14 20 17 11 11 13 15 16 20 23 21 18 17 14 15 21 22 22 23 24 26 27 27 26 25 23 22 21 20 20 20 21 21 22 22 22 21 21 21 20 20 21 21 21 21 22 23 24 25 27 28 29 31 32 33 34 35 36 36 36 36
32 31 27 24 25 29 30 29 28 28 29 31 31 31 31 29 23 13 11 20 23 16 11 5 9 22 24 14 14 22 22 19 20 20 23 23 20 18 15 16 19 22 23 24 26 28 29 29 27 26 24 22 21 19 19 19 20 21 22 22 22 22 21 21 21 22 22 22 22 23 24 25 26 28 29 30 31 33 33 35 36 36 37 37 37 37
29 30 31 30 30 30 28 26 26 26 29 31 32 31 29 29 31 24 13 13 19 25 26 14 11 29 33 23 25 31 28 25 22 19 21 24 23 19 15 16 19 21 24 26 28 30 31 31 28 26 24 22 20 19 18 18 19 21 22 22 22 22 22 22 23 23 23 23 24 25 26 28 29 29 31 32 33 34 35 36 37 38 38 38 38 38
28 29 29 26 26 27 25 26 28 26 27 31 33 32 30 32 36 33 27 20 17 24 25 10 9 31 37 31 30 30 29 26 20 18 21 24 24 19 15 16 18 21 24 27 30 33 34 34 31 29 27 24 22 19 17 18 19 21 22 22 22 22 22 23 24 24 25 26 27 28 29 30 30 31 33 34 35 36 37 38 38 39 39 38 39 39
27 29 27 17 11 14 16 18 23 26 26 30 33 33 35 37 35 34 35 29 25 33 27 11 15 39 42 35 32 27 25 25 20 20 22 22 22 19 16 18 20 23 27 30 33 36 37 37 35 32 29 25 22 20 19 19 20 21 22 22 23 23 24 25 25 26 27 28 29 30 31 32 33 33 35 35 36 37 38 39 39 39 39 39 39 40
31 34 33 23 12 11 14 14 18 23 27 32 36 36 37 39 37 37 35 30 29 32 27 23 34 50 47 38 35 31 26 25 24 23 24 23 24 23 22 23 24 25 28 31 33 36 38 39 38 34 31 28 26 24 22 22 22 22 23 23 24 25 25 26 27 28 29 30 31 32 33 34 35 35 36 37 37 38 39 40 40 40 39 40 40 41
32 35 37 35 31 31 35 33 27 24 27 33 36 36 37 39 40 39 36 38 37 26 25 42 49 50 52 47 43 42 34 29 29 29 29 28 27 27 28 29 27 25 28 32 34 37 40 41 40 38 36 33 29 26 24 23 23 23 24 25 26 26 27 27 28 30 31 32 33 34 35 35 36 37 37 37 39 40 41 41 41 40 40 41 41 42
33 33 34 37 40 44 49 47 41 38 38 40 40 37 36 36 38 43 45 48 44 26 30 52 47 43 58 57 46 48 43 37 38 38 36 33 29 29 31 32 30 27 29 34 38 40 42 42 41 40 37 33 28 25 24 24 24 24 25 26 27 28 28 28 30 32 33 34 35 36 36 36 37 37 38 39 41 41 42 42 41 41 41 42 42 42
35 35 37 40 42 47 50 47 46 46 45 44 41 40 39 35 37 47 51 52 46 35 41 57 48 48 63 57 47 50 46 43 45 43 38 35 33 33 33 33 32 30 31 36 39 42 44 44 42 37 33 29 26 25 24 25 27 27 27 27 28 28 29 29 32 34 35 36 36 36 36 37 37 38 39 41 42 43 42 42 41 41 42 42 43 43
37 39 40 41 43 47 49 47 46 46 44 43 42 40 42 43 47 52 51 48 46 45 54 60 53 57 64 57 52 54 50 48 49 46 42 41 39 37 35 35 34 32 34 37 40 43 45 44 40 35 32 30 27 26 26 29 31 30 27 28 29 29 30 30 32 34 35 36 36 36 37 37 38 39 41 42 43 43 43 42 42 42 42 43 43 44
40 40 39 39 41 46 51 49 45 44 44 44 44 44 49 52 52 50 48 45 46 50 57 57 55 63 67 61 57 55 52 51 50 49 48 46 43 41 38 38 38 35 35 37 41 45 45 42 39 36 34 32 28 27 29 31 32 30 28 29 30 31 31 31 32 34 35 36 36 36 37 38 39 40 42 43 44 44 43 43 43 43 43 44 45 45
42 41 40 37 35 44 54 47 41 44 43 41 47 55 59 57 50 46 48 49 50 52 53 52 56 64 65 60 57 55 53 52 51 50 49 47 45 44 42 41 39 37 35 36 42 47 45 41 40 36 33 29 28 30 33 34 32 30 30 31 33 34 33 32 33 35 36 36 36 38 38 39 40 41 43 44 44 44 44 43 44 44 45 45 45 46
43 43 44 39 32 43 53 41 35 36 27 30 51 63 63 60 54 52 55 55 54 53 51 53 59 62 61 59 59 56 53 53 51 49 48 47 46 44 42 40 38 37 36 37 44 47 45 43 40 33 29 28 29 31 33 32 31 31 33 34 35 36 34 34 35 36 36 37 38 39 39 39 41 42 43 44 44 44 44 44 44 45 45 46 46 46
45 46 48 43 34 40 44 31 24 21 16 31 57 62 57 58 57 56 58 59 58 57 55 58 62 61 57 57 57 55 53 52 50 48 48 48 46 43 40 38 37 36 35 38 45 47 45 44 39 32 31 31 33 34 33 33 33 34 36 38 38 37 36 36 37 37 38 39 40 41 40 40 42 43 44 45 45 45 45 44 45 45 46 47 47 47
43 46 47 43 36 36 36 22 10 12 26 49 59 53 52 55 53 50 51 53 54 55 57 60 60 58 56 55 54 53 52 50 48 48 47 47 46 43 39 37 34 33 35 41 47 47 46 45 40 36 35 35 37 39 39 37 36 38 40 40 39 38 36 36 37 37 39 40 41 42 41 41 42 43 44 45 45 45 44 44 45 46 46 47 47 47
42 42 44 43 38 32 27 20 14 16 33 45 45 45 49 47 42 40 41 47 51 51 53 55 54 53 50 47 46 46 45 45 44 44 44 45 45 42 39 36 32 32 37 43 45 43 43 44 41 38 37 38 40 42 41 39 39 40 41 41 39 36 35 36 37 38 39 40 41 41 41 41 41 42 42 43 43 42 42 42 44 45 46 47 47 46
45 42 42 41 38 33 27 27 30 29 32 41 45 47 45 42 41 39 37 45 52 49 46 46 45 46 43 40 38 35 35 38 41 41 43 43 42 40 37 34 31 32 38 43 43 43 42 42 42 41 42 43 43 42 39 38 39 41 40 39 36 35 35 36 36 36 38 39 39 39 40 41 41 41 41 41 41 40 40 40 42 44 45 45 45 44
49 47 45 39 35 36 32 24 19 15 23 43 53 49 43 42 43 36 33 43 54 51 44 41 41 44 42 38 36 32 31 37 42 41 40 38 38 38 35 33 34 37 41 43 42 41 41 42 44 45 45 44 40 37 36 37 39 40 38 36 34 34 35 35 34 35 36 37 37 38 39 40 40 41 41 40 40 39 38 39 39 40 41 41 40 40
48 48 50 44 34 33 30 19 12 13 26 44 48 41 38 38 34 26 23 37 50 46 39 36 36 37 35 32 33 32 32 37 40 36 33 33 36 36 33 33 37 40 42 41 40 40 42 44 46 46 44 39 34 33 35 37 37 36 34 33 33 33 34 33 33 34 35 36 36 37 37 38 38 38 37 37 37 36 36 36 36 37 37 38 38 38
47 46 47 45 38 36 33 25 21 26 36 44 43 38 33 27 22 14 12 25 40 36 30 30 30 29 28 27 28 29 30 34 34 31 30 32 33 32 32 35 38 41 43 43 43 44 45 46 45 43 38 33 31 33 35 35 34 33 32 33 33 32 31 31 32 34 34 34 35 34 34 34 34 35 35 35 35 35 35 36 36 36 37 37 36 36
42 46 47 47 44 42 37 30 27 32 41 46 45 41 31 18 13 17 19 28 36 32 28 27 25 25 25 23 24 26 26 28 30 30 30 31 30 30 32 36 40 43 44 44 45 46 46 45 43 38 33 31 32 34 33 32 32 31 31 31 31 30 29 31 32 33 32 32 32 32 33 33 33 34 35 35 35 35 36 36 36 36 36 35 34 33
35 36 39 44 46 43 41 34 27 31 45 49 43 39 34 23 21 27 33 34 33 33 31 28 25 25 23 20 22 24 25 27 29 28 27 28 30 31 33 37 40 42 43 45 46 45 43 40 35 31 30 31 32 32 31 30 30 29 29 29 28 28 29 31 32 31 31 31 31 32 33 33 34 34 34 34 34 34 34 34 34 33 33 32 32 32
33 29 30 39 42 37 33 26 16 22 40 47 42 39 38 34 33 36 36 31 30 32 30 27 25 24 21 21 22 24 26 27 26 25 25 26 27 29 32 35 37 38 39 39 37 35 32 30 28 29 30 30 29 29 29 28 28 28 28 27 27 28 30 30 30 31 31 31 32 33 33 33 33 33 32 32 32 32 32 31 31 31 31 32 32 33
30 30 31 36 36 30 27 25 24 30 40 41 38 37 37 36 37 37 34 32 31 29 26 24 22 20 20 20 20 21 22 22 22 23 23 23 24 25 26 28 29 29 28 27 26 25 25 26 27 28 28 28 28 27 27 27 27 28 27 26 27 28 29 30 31 31 32 32 33 33 33 32 32 32 31 31 30 30 31 31 31 31 32 33 34 34
29 32 34 35 34 31 32 35 36 38 39 37 37 35 32 31 32 33 33 32 30 26 24 23 20 19 19 19 19 18 18 18 19 20 21 21 22 22 22 23 23 22 23 23 23 24 25 26 27 26 26 27 26 26 26 27 27 27 27 27 28 29 30 31 32 32 32 32 33 32 32 31 31 30 30 29 30 30 30 31 32 32 33 34 35 36
32 33 33 33 33 32 34 36 37 36 35 35 35 33 30 29 28 29 30 30 28 26 25 23 21 20 19 19 19 19 19 19 20 21 21 21 21 20 20 20 20 21 22 23 24 25 26 26 26 25 25 25 25 26 27 28 28 28 29 29 30 30 31 32 32 32 32 32 32 31 31 30 30 30 30 30 30 31 31 32 33 34 35 35 36 37
33 33 31 30 30 28 28 30 33 35 34 32 30 28 27 25 24 25 28 29 27 26 25 23 21 21 20 20 20 20 20 20 20 20 20 19 19 19 20 20 20 22 23 24 25 25 25 25 25 24 25 25 26 27 28 28 30 30 30 30 30 30 31 31 31 31 31 31 31 30 30 30 30 30 30 31 31 32 33 33 34 35 36 37 37 38
28 30 29 28 28 28 26 24 24 25 26 27 25 22 19 18 19 21 24 25 25 23 22 22 21 20 19 19 18 17 18 18 18 18 19 19 19 20 21 21 22 23 24 24 25 24 24 24 24 25 25 26 27 28 29 29 30 30 30 31 30 31 31 31 31 31 30 30 30 30 30 30 30 30 31 31 32 33 34 35 36 37 38 38 40 41
22 24 24 24 25 26 26 24 20 17 18 19 19 17 16 16 17 19 21 22 22 22 22 22 20 19 18 16 15 16 16 17 18 19 20 21 22 22 23 23 24 23 23 23 23 23 23 24 25 25 26 27 28 29 29 29 30 31 31 31 31 31 31 30 31 31 30 30 31 31 31 31 31 31 32 32 33 34 35 37 38 39 40 41 42 43
22 21 20 21 22 23 23 21 20 20 19 18 18 18 18 18 20 21 21 21 21 21 21 20 18 17 16 16 16 16 17 18 19 20 21 23 23 23 23 23 22 22 23 23 23 24 24 25 25 26 27 27 28 29 29 30 31 31 32 32 31 31 31 30 31 31 31 31 31 31 32 32 32 32 33 34 35 36 37 38 39 40 41 42 43 44
23 22 20 21 22 22 22 21 21 22 22 20 19 19 19 20 20 20 19 19 19 20 19 18 17 16 16 16 17 17 18 19 19 20 21 21 21 21 21 21 21 22 23 23 24 25 25 25 26 27 27 28 29 30 31 31 31 31 31 31 30 30 30 30 30 30 31 31 31 31 31 32 33 34 35 35 36 37 38 39 40 41 42 43 45 46
Wind_Direction
259 259 257 257 260 266 271 276 279 276 272 269 266 262 259 261 259 252 257 268 276 280 280 282 284 286 287 288 289 289 288 285 283 284 284 284 283 283 283 283 281 278 276 274 272 272 272 271 271 271 268 265 263 259 252 246 239 233 230 224 218 220 228 236 242 248 251 252 254 257 258 257 255 253 251 252 258 264 269 275 280 283 285 289 295 299
259 259 259 262 266 269 271 274 276 273 269 270 270 262 255 260 266 268 271 275 280 281 282 285 284 283 285 287 287 286 284 284 285 285 284 285 285 284 283 281 280 278 275 273 271 270 270 270 269 268 265 263 260 256 250 243 236 229 226 225 225 227 232 239 244 248 251 252 256 259 259 256 253 251 251 252 256 262 268 274 279 283 288 294 299 303
261 262 266 268 267 265 265 268 271 265 261 262 264 262 260 265 275 279 281 283 284 283 284 286 282 281 284 284 283 283 282 284 285 283 282 281 280 280 280 280 279 278 275 271 268 266 265 265 264 263 262 260 257 253 247 241 234 228 226 229 232 234 236 241 247 252 254 256 258 260 257 254 251 252 253 254 257 262 269 274 280 285 291 297 301 305
262 266 271 267 261 261 261 260 253 246 249 251 253 259 264 271 280 283 286 290 287 284 284 285 283 283 285 285 284 285 285 285 284 282 279 276 275 278 280 279 277 276 274 268 263 259 258 259 259 259 258 257 254 250 245 239 234 230 229 233 236 237 239 243 248 252 254 257 257 256 253 251 251 253 254 256 260 265 271 276 282 287 292 297 300 303
262 265 266 264 259 257 259 258 248 241 245 250 254 258 265 272 277 282 288 289 284 281 281 286 287 286 288 289 288 289 287 286 286 284 281 278 278 279 279 278 277 277 275 269 261 254 252 254 255 255 253 252 249 246 243 237 233 231 231 234 238 238 241 245 248 250 253 253 252 251 250 250 252 254 256 259 264 269 274 278 283 288 293 297 300 300
265 265 264 264 261 257 259 261 258 253 254 258 260 261 267 273 277 282 285 281 279 278 280 286 290 288 290 289 289 290 287 286 287 286 285 285 282 281 283 283 279 275 273 271 265 255 250 249 249 249 249 248 246 243 239 235 232 232 231 234 238 240 242 243 245 247 248 246 246 247 248 249 251 253 257 262 266 271 275 280 284 289 294 297 297 296
266 265 262 260 259 259 260 261 260 259 259 260 265 268 270 273 276 279 277 272 272 273 279 281 281 287 290 289 288 290 290 289 287 287 288 288 286 286 286 283 277 273 272 271 269 259 250 247 244 245 246 245 243 240 236 233 231 230 231 234 238 241 241 241 242 242 241 241 242 244 246 248 250 253 258 262 266 272 275 280 286 290 293 294 292 291
264 265 261 260 260 258 257 259 262 261 258 259 267 274 274 275 278 276 273 269 266 270 273 273 274 282 285 287 291 293 294 294 291 292 294 293 291 288 283 277 274 272 271 270 268 259 249 244 241 240 242 241 240 237 233 230 229 229 231 235 239 240 239 239 239 238 236 237 239 242 245 248 251 255 259 263 267 272 278 283 287 289 289 288 288 287
265 265 264 265 263 260 259 262 265 262 257 259 268 273 272 275 274 270 269 265 268 274 270 267 272 273 275 282 291 295 293 295 297 300 304 302 297 288 278 272 270 269 269 268 264 255 246 240 237 236 236 237 237 233 229 227 226 228 232 236 239 239 238 236 235 233 233 235 237 240 245 248 253 258 261 264 269 275 281 285 286 286 284 284 283 282
261 260 262 264 260 259 262 263 261 259 257 260 266 269 270 272 268 265 265 264 269 272 262 265 267 261 275 284 288 292 293 296 302 305 309 308 303 293 282 274 269 265 262 259 256 252 247 242 237 235 233 232 233 229 225 225 225 229 234 237 238 236 235 233 231 231 231 234 237 240 246 251 255 260 263 266 271 276 281 282 282 282 280 280 279 279
254 256 255 254 255 256 257 256 255 256 256 258 261 263 265 266 263 262 264 266 272 266 259 267 267 257 270 292 286 288 295 299 304 306 309 308 304 298 290 282 275 267 255 245 245 253 255 248 241 237 232 229 229 226 223 224 226 230 235 236 235 234 232 231 230 231 231 234 238 240 246 252 256 260 264 268 272 276 278 279 278 277 276 276 277 278
250 250 248 248 250 250 250 251 253 254 253 253 254 254 256 261 266 264 259 255 251 261 267 274 270 249 237 254 274 284 292 298 303 307 309 308 305 298 290 283 278 271 255 241 241 252 258 255 246 238 232 227 225 223 222 225 228 231 234 233 233 233 232 231 231 231 232 234 237 241 246 251 255 259 263 267 271 274 275 275 274 273 273 275 276 278
249 248 247 247 248 249 249 247 246 248 247 247 244 238 237 246 291 266 234 226 229 249 267 269 247 236 243 260 275 281 288 295 301 305 306 304 304 302 294 284 275 269 259 246 245 252 256 253 243 234 229 225 222 221 223 227 229 231 232 232 234 234 232 232 231 231 233 236 239 243 247 250 254 258 263 267 271 272 272 271 271 272 274 275 277 278
245 249 246 244 248 251 249 244 242 244 243 242 239 232 222 194 42 261 227 250 252 254 259 245 235 243 254 271 282 284 291 297 297 300 301 297 296 298 296 289 278 269 261 252 247 249 251 245 233 225 222 219 218 221 224 227 229 230 232 234 235 235 234 233 232 233 235 238 241 244 247 251 255 259 264 268 269 270 270 270 271 272 274 276 277 279
235 247 247 246 251 254 254 252 253 255 250 248 249 243 232 220 216 229 211 209 249 280 244 210 213 235 251 274 285 288 293 295 294 293 292 292 293 292 291 288 281 273 265 257 248 244 242 234 225 220 217 216 216 219 224 226 229 232 234 237 237 237 238 236 235 236 238 240 243 246 250 254 258 262 265 267 269 269 269 270 272 274 276 277 280 283
233 248 254 251 252 252 251 251 250 247 245 246 243 235 235 236 236 239 243 245 271 309 243 201 226 251 262 274 279 284 288 291 292 291 288 291 294 292 288 284 280 273 266 259 248 239 233 227 223 219 215 215 217 220 225 229 232 235 237 238 238 238 238 238 238 238 240 241 245 249 253 257 262 265 267 268 268 269 270 272 274 276 278 280 284 287
230 245 253 247 244 241 232 232 235 233 232 229 223 225 234 239 236 238 255 273 282 292 258 225 246 262 271 278 279 280 285 289 295 298 295 293 292 290 284 279 276 269 264 260 244 232 230 227 223 219 215 216 221 225 230 232 233 235 237 239 239 240 240 241 241 240 241 244 248 252 256 260 264 266 268 268 269 270 272 274 276 279 281 284 287 289
239 246 252 246 242 239 234 233 230 226 222 216 219 231 235 233 231 229 248 307 280 271 262 233 251 265 267 273 281 282 284 292 298 300 298 294 291 291 285 278 273 265 260 256 241 229 227 225 221 218 217 220 225 228 229 230 233 234 237 238 239 241 242 241 241 242 244 248 252 257 260 263 266 268 269 270 272 273 275 277 280 282 284 286 288 289
241 247 254 246 239 233 229 228 220 217 218 220 229 233 219 215 216 208 214 269 210 242 285 245 251 261 258 262 279 286 288 296 298 295 298 297 296 299 290 276 271 265 257 252 243 234 229 225 220 218 223 228 229 230 230 231 235 237 239 240 240 240 239 239 242 245 249 254 258 261 263 265 267 270 272 273 274 276 278 280 282 284 285 286 288 289
234 240 246 239 233 226 221 220 215 214 215 216 223 224 215 215 210 206 213 219 185 210 274 266 251 258 265 272 282 290 295 301 298 295 299 297 295 300 290 271 268 265 259 254 248 239 231 225 223 225 228 231 230 231 233 235 238 240 240 241 241 241 241 244 247 251 256 261 263 264 265 268 270 272 273 274 275 277 280 282 283 285 285 286 288 289
228 231 240 235 226 219 219 225 230 236 234 223 219 216 214 214 209 217 230 228 225 223 229 272 269 261 272 283 287 295 302 299 292 293 297 294 292 297 288 267 264 264 260 256 248 240 232 226 227 230 231 230 229 231 235 238 239 239 241 241 242 243 245 248 252 257 263 265 266 267 269 271 272 273 274 275 276 279 281 282 283 284 285 286 288 290
222 227 237 233 225 225 232 241 246 250 251 246 240 234 228 225 218 219 240 232 231 237 235 242 281 274 273 269 273 285 288 288 288 287 292 294 292 293 286 264 259 263 262 256 247 239 233 230 231 233 233 233 235 237 239 241 241 242 243 243 244 245 248 252 256 262 267 268 269 270 271 272 272 273 275 276 278 280 281 282 283 283 284 286 288 290
225 227 233 233 236 243 247 247 244 242 244 243 243 241 239 238 230 222 227 229 227 239 246 248 275 276 273 270 277 283 284 287 288 277 282 293 295 294 282 258 254 260 260 253 246 240 235 235 234 233 235 236 238 242 243 245 246 245 245 245 246 247 250 256 262 266 268 269 270 271 271 271 272 274 276 277 279 281 281 282 282 283 284 286 288 289
219 220 227 233 243 249 248 244 240 236 231 227 231 235 234 238 238 233 236 241 242 243 239 228 261 266 270 277 282 283 284 285 280 265 273 288 293 290 275 261 258 258 258 254 248 244 240 238 238 238 239 239 241 245 249 252 251 246 245 246 247 250 255 261 265 268 269 270 270 270 271 272 273 274 275 277 279 280 281 281 281 282 284 286 287 289
219 214 218 222 242 250 243 237 231 225 224 228 233 235 234 237 238 236 235 237 250 252 238 210 253 262 267 277 280 281 283 279 270 265 271 279 285 281 267 267 268 260 259 257 252 250 246 243 242 242 242 242 245 252 257 259 256 250 248 249 250 254 258 262 265 267 268 268 269 270 271 272 273 273 275 276 278 279 280 280 281 282 284 286 287 288
238 227 222 216 215 232 237 231 226 227 231 234 237 237 237 237 234 234 234 230 239 249 238 227 249 261 266 269 272 275 275 272 271 271 271 273 278 274 264 271 277 266 258 257 255 254 250 246 244 243 244 247 249 254 259 261 260 255 250 249 251 255 259 262 265 266 267 268 268 270 270 271 273 274 275 276 277 278 278 279 280 282 284 285 286 288
236 230 229 229 231 240 247 250 251 249 242 241 246 248 245 243 239 235 233 232 234 236 242 245 251 262 268 266 268 271 268 268 272 274 274 274 273 271 269 276 281 270 260 257 255 253 250 247 246 245 247 248 247 251 257 260 261 258 253 251 253 255 259 262 265 265 266 267 268 269 271 272 273 274 275 276 276 277 277 279 280 282 283 285 286 286
225 223 230 237 241 248 254 257 258 258 255 254 256 254 249 248 244 234 231 238 238 227 248 257 254 261 270 270 270 272 272 272 275 278 280 278 275 271 269 272 273 266 258 255 251 250 249 246 244 244 243 243 245 249 255 259 261 259 255 253 252 254 259 262 264 264 265 266 267 269 271 272 273 273 274 275 275 276 277 279 281 282 283 283 284 285
228 231 237 241 245 250 254 256 255 256 258 257 255 253 251 251 245 238 239 244 238 228 251 265 262 262 271 274 273 276 277 275 277 280 280 278 276 271 264 262 264 262 259 255 250 249 247 243 241 240 240 243 247 251 257 261 263 262 259 256 253 254 260 263 263 263 264 265 267 269 271 271 272 273 274 274 275 277 278 279 280 281 281 281 283 284
230 236 240 241 245 251 254 255 253 252 254 254 251 252 253 252 250 248 247 247 242 242 257 266 265 266 271 272 272 275 276 274 277 278 276 275 275 272 266 262 264 265 261 258 253 249 245 241 239 239 242 247 250 254 261 266 265 263 260 256 254 258 265 266 264 263 264 266 267 269 270 270 272 273 274 274 275 277 278 279 279 279 279 280 282 283
227 233 238 239 242 250 253 253 250 247 248 250 252 254 255 254 250 246 245 246 244 247 257 262 262 267 271 271 272 274 272 271 274 276 276 276 275 273 269 266 268 268 262 259 252 243 238 236 237 240 244 248 251 257 265 268 264 259 256 255 258 265 270 268 263 261 263 265 266 267 267 269 270 272 273 274 275 277 278 278 278 278 278 280 281 283
227 230 236 236 237 248 254 252 246 245 245 245 249 253 252 249 245 242 246 248 245 248 255 255 255 265 274 275 275 276 273 273 275 277 278 278 276 274 272 269 269 266 262 258 248 237 234 235 238 242 247 249 253 260 267 267 260 254 254 254 259 266 269 265 260 259 260 261 263 263 265 267 269 271 273 274 276 277 277 277 276 277 278 279 281 282
231 232 236 234 233 247 255 253 246 245 241 238 247 253 254 250 247 247 249 252 251 251 252 252 259 274 283 279 276 278 278 278 279 281 281 281 279 277 275 272 269 264 262 255 242 234 234 237 240 244 246 247 251 257 262 259 252 249 249 250 256 263 263 258 256 256 256 258 259 261 263 266 268 271 272 274 275 275 275 275 276 277 277 278 279 280
234 233 234 233 232 245 254 253 240 233 229 244 253 258 260 257 253 250 251 256 259 257 258 263 271 280 281 276 276 279 280 281 283 284 283 281 279 276 274 273 269 264 261 248 235 231 234 238 242 243 241 242 248 252 254 252 247 245 246 249 258 264 261 256 255 254 255 256 257 258 260 263 266 268 270 271 272 273 273 274 275 275 275 276 277 280
235 233 231 230 230 239 247 245 220 214 240 252 259 263 263 262 259 255 256 260 262 262 264 267 272 276 277 276 278 279 280 283 284 283 282 280 277 275 272 271 268 264 257 242 230 230 235 238 241 241 241 245 249 252 255 251 246 244 247 254 262 264 260 258 257 256 256 257 256 257 259 261 264 265 267 268 270 271 271 272 272 273 274 275 277 280
236 235 234 231 230 233 238 234 227 240 251 256 261 262 260 259 258 256 257 261 264 266 266 268 273 278 279 278 278 279 279 280 279 278 277 275 275 275 272 270 267 261 250 236 228 231 236 238 241 243 246 249 252 255 255 250 245 247 252 259 263 261 257 256 255 256 256 256 257 258 260 262 264 265 267 268 269 270 270 270 270 271 272 273 276 279
240 237 236 233 231 231 231 234 244 254 260 260 259 259 260 261 262 262 263 268 272 272 269 269 274 277 277 277 277 276 275 273 271 271 271 271 272 272 270 266 259 249 238 229 227 232 236 238 242 246 250 252 255 256 252 246 247 252 258 261 261 256 254 254 255 256 256 256 257 259 260 261 263 265 266 267 268 268 268 268 268 268 270 272 275 277
244 242 240 235 232 232 232 238 248 252 258 260 260 263 265 265 267 268 267 271 275 274 269 267 271 275 277 277 275 273 270 266 266 270 271 269 268 266 261 255 250 242 232 227 228 232 234 238 243 248 252 255 256 253 248 247 253 257 259 259 256 254 254 255 257 258 258 258 259 259 260 261 262 264 264 265 266 267 266 266 266 267 270 272 274 276
241 243 243 239 233 231 228 231 236 234 250 260 264 268 268 267 269 266 260 269 275 275 273 272 274 277 278 277 276 274 267 262 266 274 273 266 264 261 254 250 248 241 233 229 230 232 235 240 245 250 254 255 252 249 250 253 257 257 257 255 254 256 258 260 261 260 259 259 259 259 260 260 261 262 263 264 266 266 267 267 268 269 271 273 275 277
232 236 236 232 230 230 228 231 239 242 251 258 263 267 269 272 270 249 233 265 274 277 279 279 278 279 278 277 276 271 264 263 269 273 267 262 261 256 248 246 243 237 231 230 231 234 238 243 249 254 255 252 250 252 254 255 255 255 255 256 258 261 263 262 261 259 258 259 259 259 259 260 261 263 264 265 267 267 268 269 270 272 273 275 277 278
225 229 230 229 231 233 232 234 241 247 252 257 259 262 266 266 243 226 239 265 274 277 280 279 280 281 278 273 269 264 260 261 264 264 262 261 259 252 244 240 237 234 232 233 237 241 245 251 255 256 253 251 253 255 255 255 256 257 259 261 262 263 262 260 258 258 258 259 259 259 261 262 264 265 266 267 267 267 268 270 271 272 274 275 276 277
219 221 224 228 231 233 234 236 242 249 254 255 254 255 256 247 233 243 258 267 269 272 274 276 278 278 272 265 258 252 247 247 250 254 256 253 250 245 239 235 235 236 238 241 245 248 252 255 257 255 253 254 256 256 256 258 259 261 262 263 262 261 259 257 258 259 259 260 262 264 266 266 267 268 267 267 267 268 269 270 271 272 273 275 276 277
229 221 217 225 230 231 232 235 237 246 251 253 251 251 252 248 248 257 263 265 265 268 270 269 270 268 263 256 248 241 238 238 240 241 242 241 240 237 235 236 238 241 244 247 250 253 254 254 254 254 255 256 256 258 260 262 262 263 262 261 259 257 257 258 260 261 263 265 267 267 268 268 268 267 267 268 268 269 270 271 272 273 275 276 277 278
233 225 221 228 231 225 220 226 237 245 251 254 254 253 254 253 255 259 259 259 261 262 260 258 256 253 250 245 235 229 230 232 232 233 235 235 235 236 238 241 244 248 251 254 256 256 256 255 254 255 257 259 261 263 264 263 263 262 261 259 258 258 260 262 264 266 267 268 269 269 269 268 268 268 269 269 269 270 271 272 274 275 276 278 278 279
231 231 232 235 236 231 230 236 243 248 251 253 255 256 256 255 254 255 255 255 254 250 249 250 244 237 235 232 227 228 232 235 239 244 245 247 248 250 252 254 256 258 258 257 257 256 256 256 257 258 260 262 263 263 263 262 261 261 260 261 261 263 266 267 268 269 270 270 270 270 269 269 268 268 268 268 269 270 272 273 275 276 277 278 279 280
237 238 239 239 237 237 239 241 244 246 248 250 252 253 254 253 253 251 249 246 243 242 244 245 240 237 236 236 239 245 249 252 254 255 255 256 257 256 257 257 258 258 257 256 255 255 256 257 258 259 260 261 260 260 260 260 261 262 264 265 267 268 269 270 271 271 271 270 270 269 268 268 268 268 268 269 270 272 273 275 276 277 278 279 280 281
237 237 237 235 233 235 237 239 242 243 245 247 248 249 249 249 247 245 241 239 238 241 244 247 249 251 252 252 254 255 255 255 254 251 251 251 251 251 252 252 252 252 253 253 254 254 256 257 258 258 257 256 256 257 259 261 263 265 266 268 270 271 272 272 272 271 271 270 269 269 268 268 268 269 270 272 273 275 277 277 278 279 280 280 281 280
235 235 233 231 230 231 233 235 237 238 240 242 243 243 241 236 233 235 237 239 242 245 250 255 259 261 261 258 255 251 247 244 242 242 243 244 246 247 247 247 249 250 251 253 254 256 257 256 256 255 255 256 257 259 262 264 266 268 269 271 272 272 272 272 271 271 270 270 269 269 269 270 272 274 275 277 278 279 280 280 280 280 280 280 280 279
231 230 228 226 227 228 229 230 230 231 234 237 238 241 241 237 237 240 243 248 253 256 258 259 260 260 259 253 246 242 238 236 236 239 241 242 245 246 247 249 251 251 252 253 254 253 253 253 254 256 258 260 262 264 267 269 271 272 273 274 273 273 272 271 271 271 271 270 270 271 273 274 277 278 279 279 280 280 280 281 281 281 280 280 279 279
228 227 225 227 230 232 234 235 238 241 244 245 248 251 251 250 251 251 252 254 256 256 257 258 258 258 254 247 242 240 238 237 238 239 241 243 245 247 248 250 251 251 252 251 250 250 252 254 257 260 263 265 267 269 272 273 274 275 275 275 274 273 272 271 271 271 271 272 273 274 276 277 278 279 279 279 279 279 280 280 279 280 280 280 280 280
237 238 238 241 243 246 248 249 250 252 254 255 256 256 256 256 256 254 252 251 251 253 257 259 257 254 249 244 242 241 241 241 242 241 242 244 244 245 247 248 249 250 249 249 250 252 255 257 260 263 266 268 270 272 273 274 275 275 275 275 274 273 271 271 271 271 271 272 273 274 275 276 277 277 277 277 277 277 278 277 278 278 278 279 279 279
Height
3164 3163 3163 3166 3168 3169 3169 3170 3170 3171 3172 3172 3172 3172 3171 3171 3171 3172 3172 3171 3171 3169 3168 3168 3166 3165 3165 3165 3166 3166 3165 3164 3164 3164 3164 3164 3163 3164 3164 3164 3164 3164 3164 3164 3164 3164 3163 3164 3165 3166 3167 3167 3167 3168 3169 3169 3170 3171 3171 3172 3172 3173 3173 3173 3174 3174 3175 3176 3176 3176 3177 3177 3177 3178 3178 3178 3178 3177 3178 3178 3178 3179 3179 3179 3178 3178
3161 3159 3161 3165 3167 3167 3167 3167 3168 3168 3169 3169 3170 3169 3169 3169 3169 3170 3170 3169 3169 3167 3165 3165 3163 3161 3161 3162 3162 3162 3161 3160 3161 3161 3160 3160 3159 3159 3160 3160 3160 3160 3160 3161 3161 3161 3160 3160 3161 3162 3163 3164 3164 3165 3166 3167 3168 3168 3169 3170 3170 3171 3171 3171 3172 3172 3173 3173 3174 3174 3175 3175 3176 3176 3176 3176 3176 3176 3176 3176 3176 3176 3176 3176 3176 3176
3158 3157 3160 3164 3165 3164 3165 3165 3165 3166 3166 3167 3168 3167 3167 3168 3168 3168 3168 3167 3167 3164 3162 3162 3160 3157 3158 3158 3158 3159 3157 3157 3157 3157 3157 3156 3155 3155 3155 3156 3155 3155 3156 3156 3157 3157 3157 3157 3157 3158 3159 3160 3161 3162 3163 3164 3165 3166 3167 3168 3168 3168 3169 3169 3169 3170 3170 3171 3172 3172 3173 3173 3173 3173 3174 3174 3174 3174 3174 3174 3174 3174 3174 3174 3173 3173
3155 3156 3159 3161 3161 3162 3162 3163 3163 3163 3164 3165 3165 3165 3165 3166 3166 3165 3165 3165 3165 3163 3160 3159 3155 3151 3153 3153 3154 3155 3153 3152 3153 3153 3152 3152 3151 3151 3152 3152 3151 3151 3151 3152 3153 3153 3153 3153 3153 3155 3156 3157 3158 3158 3160 3161 3163 3164 3165 3166 3166 3166 3166 3167 3167 3167 3168 3169 3169 3170 3170 3171 3171 3171 3171 3171 3171 3172 3172 3172 3172 3171 3171 3171 3171 3171
3152 3155 3157 3158 3159 3160 3160 3160 3161 3162 3162 3163 3163 3163 3163 3164 3165 3163 3163 3163 3161 3160 3159 3157 3151 3144 3146 3148 3148 3151 3150 3149 3150 3149 3148 3148 3148 3149 3148 3147 3148 3148 3148 3148 3148 3149 3149 3149 3150 3151 3152 3153 3154 3156 3157 3158 3160 3161 3163 3163 3164 3164 3164 3164 3164 3165 3165 3166 3167 3168 3168 3168 3169 3169 3169 3169 3169 3169 3169 3169 3169 3169 3168 3168 3168 3169
3148 3153 3155 3155 3157 3158 3158 3158 3159 3160 3160 3160 3160 3161 3162 3162 3163 3162 3162 3161 3159 3158 3157 3157 3150 3138 3139 3143 3144 3146 3146 3146 3147 3145 3144 3145 3144 3144 3143 3143 3144 3144 3144 3144 3144 3145 3145 3146 3147 3148 3149 3150 3151 3153 3154 3155 3157 3158 3160 3161 3161 3161 3161 3161 3162 3162 3163 3164 3165 3165 3166 3166 3166 3166 3166 3166 3166 3166 3166 3166 3166 3166 3166 3166 3166 3167
3144 3149 3152 3152 3154 3155 3155 3155 3156 3157 3158 3158 3157 3159 3160 3160 3160 3160 3160 3159 3157 3155 3154 3156 3153 3140 3132 3135 3139 3141 3141 3141 3143 3141 3141 3141 3139 3139 3139 3138 3139 3140 3140 3141 3141 3141 3141 3142 3144 3145 3146 3147 3148 3149 3151 3152 3154 3156 3157 3158 3158 3158 3158 3158 3159 3160 3161 3161 3162 3163 3163 3163 3163 3163 3163 3163 3164 3164 3164 3164 3163 3163 3164 3164 3164 3165
3141 3145 3147 3149 3151 3151 3151 3152 3153 3155 3155 3154 3154 3157 3158 3157 3158 3158 3158 3157 3155 3154 3152 3152 3154 3144 3128 3125 3133 3136 3136 3136 3137 3138 3137 3136 3135 3134 3134 3134 3134 3135 3136 3137 3137 3137 3138 3139 3140 3142 3143 3144 3145 3146 3148 3150 3151 3153 3154 3155 3155 3156 3155 3156 3156 3157 3158 3159 3160 3160 3161 3161 3161 3161 3161 3161 3161 3161 3161 3161 3161 3161 3162 3162 3162 3162
3140 3142 3143 3145 3147 3147 3148 3150 3151 3153 3153 3152 3153 3155 3155 3155 3156 3155 3155 3155 3153 3152 3149 3147 3153 3146 3125 3121 3130 3131 3130 3131 3132 3133 3133 3132 3131 3130 3130 3130 3130 3132 3132 3133 3134 3134 3135 3135 3137 3138 3139 3140 3141 3143 3145 3147 3149 3150 3151 3152 3152 3153 3152 3153 3154 3155 3156 3156 3157 3158 3158 3158 3158 3158 3158 3158 3159 3159 3159 3159 3159 3159 3160 3160 3160 3160
3139 3139 3141 3142 3143 3143 3145 3148 3149 3150 3150 3150 3151 3152 3153 3153 3153 3154 3153 3153 3153 3149 3144 3144 3150 3144 3123 3116 3126 3128 3127 3128 3128 3129 3129 3129 3129 3127 3126 3127 3127 3128 3129 3130 3131 3131 3132 3133 3133 3135 3136 3137 3138 3140 3142 3144 3146 3147 3148 3149 3149 3149 3150 3150 3151 3152 3153 3153 3154 3155 3155 3155 3155 3156 3156 3156 3156 3156 3156 3157 3157 3157 3157 3158 3158 3157
3136 3137 3138 3138 3139 3140 3143 3145 3146 3147 3147 3148 3149 3149 3151 3151 3150 3152 3150 3150 3151 3143 3138 3141 3144 3143 3128 3115 3120 3125 3125 3125 3124 3125 3126 3126 3126 3125 3124 3124 3124 3125 3126 3128 3128 3129 3130 3130 3131 3132 3133 3134 3136 3137 3139 3141 3143 3144 3145 3146 3146 3146 3147 3147 3148 3149 3150 3151 3151 3152 3152 3153 3153 3153 3154 3154 3154 3154 3154 3155 3155 3155 3155 3155 3155 3154
3132 3133 3133 3134 3135 3137 3140 3142 3143 3144 3144 3145 3146 3147 3149 3149 3148 3149 3147 3149 3149 3137 3133 3137 3138 3140 3129 3114 3116 3121 3122 3123 3122 3121 3122 3122 3123 3123 3123 3122 3122 3122 3123 3124 3125 3126 3127 3128 3128 3130 3130 3132 3133 3135 3137 3138 3140 3141 3142 3143 3143 3144 3144 3145 3146 3146 3147 3148 3149 3149 3150 3150 3151 3151 3151 3151 3152 3152 3152 3152 3152 3152 3152 3152 3152 3151
3128 3128 3129 3131 3132 3134 3136 3138 3139 3140 3141 3142 3143 3145 3148 3148 3148 3147 3145 3146 3142 3133 3131 3134 3135 3132 3119 3111 3116 3118 3119 3121 3121 3120 3120 3119 3120 3120 3120 3120 3120 3120 3120 3121 3122 3123 3125 3125 3126 3127 3128 3130 3131 3133 3134 3136 3137 3138 3139 3140 3140 3141 3141 3142 3143 3144 3145 3145 3146 3147 3147 3148 3148 3148 3149 3149 3149 3150 3150 3150 3149 3149 3149 3148 3148 3148
3124 3124 3125 3127 3128 3129 3131 3132 3134 3134 3136 3136 3138 3141 3143 3146 3148 3146 3143 3141 3135 3130 3129 3132 3133 3125 3113 3110 3113 3114 3116 3119 3118 3119 3118 3117 3117 3117 3117 3117 3117 3117 3118 3118 3119 3120 3121 3123 3123 3124 3126 3127 3129 3130 3132 3133 3134 3135 3136 3137 3137 3138 3139 3139 3140 3141 3142 3143 3143 3144 3145 3145 3145 3146 3146 3146 3147 3147 3147 3146 3146 3146 3145 3145 3145 3145
3121 3119 3119 3122 3123 3124 3125 3126 3128 3130 3132 3132 3134 3137 3137 3140 3142 3139 3137 3135 3130 3128 3128 3130 3128 3118 3109 3109 3109 3110 3114 3114 3114 3116 3116 3115 3115 3114 3114 3114 3114 3114 3114 3115 3115 3117 3118 3119 3120 3121 3123 3125 3126 3128 3129 3130 3132 3133 3134 3134 3135 3135 3136 3137 3137 3138 3139 3140 3141 3141 3142 3142 3142 3143 3143 3143 3143 3143 3143 3143 3142 3142 3142 3142 3141 3141
3117 3114 3115 3119 3119 3121 3122 3123 3125 3127 3129 3130 3132 3134 3133 3133 3135 3133 3131 3130 3129 3127 3125 3124 3118 3109 3106 3105 3106 3109 3110 3110 3111 3111 3113 3113 3112 3111 3111 3111 3111 3111 3111 3112 3112 3113 3115 3116 3117 3119 3120 3122 3123 3125 3126 3128 3129 3130 3131 3131 3132 3133 3133 3134 3135 3135 3136 3137 3138 3138 3139 3139 3139 3139 3139 3140 3140 3140 3139 3139 3139 3138 3138 3138 3137 3137
3113 3111 3112 3115 3116 3119 3120 3121 3122 3123 3125 3126 3127 3127 3128 3130 3131 3132 3130 3128 3129 3127 3119 3115 3110 3105 3104 3100 3100 3106 3106 3107 3109 3108 3109 3110 3109 3108 3108 3107 3108 3108 3109 3109 3110 3111 3112 3114 3115 3116 3118 3119 3121 3122 3124 3125 3126 3127 3128 3129 3129 3130 3130 3131 3132 3133 3133 3134 3135 3135 3135 3136 3136 3136 3136 3136 3136 3136 3136 3135 3135 3135 3134 3134 3134 3133
3110 3109 3108 3111 3113 3115 3117 3118 3119 3119 3121 3122 3122 3123 3126 3129 3130 3131 3130 3128 3129 3126 3114 3108 3105 3103 3102 3095 3095 3101 3103 3104 3107 3106 3106 3106 3106 3106 3105 3105 3106 3106 3107 3107 3107 3109 3110 3111 3112 3114 3115 3117 3118 3120 3121 3122 3123 3124 3125 3126 3127 3127 3128 3128 3129 3130 3130 3131 3132 3132 3132 3132 3132 3132 3132 3132 3132 3132 3132 3131 3131 3131 3131 3130 3130 3129
3108 3107 3107 3108 3110 3113 3115 3115 3115 3115 3118 3119 3119 3121 3123 3125 3125 3127 3129 3126 3126 3123 3112 3103 3100 3096 3094 3092 3093 3097 3100 3102 3103 3103 3104 3103 3104 3104 3103 3103 3103 3103 3104 3104 3105 3107 3108 3109 3110 3111 3113 3114 3115 3117 3118 3120 3121 3122 3123 3123 3124 3124 3125 3125 3126 3126 3127 3128 3128 3128 3128 3129 3129 3129 3129 3129 3129 3128 3128 3128 3127 3127 3127 3126 3126 3125
3105 3105 3104 3104 3107 3110 3111 3110 3111 3112 3114 3116 3117 3118 3119 3120 3120 3121 3122 3120 3120 3120 3111 3102 3095 3088 3086 3089 3092 3095 3097 3099 3100 3100 3101 3102 3102 3102 3101 3101 3101 3101 3102 3103 3104 3105 3106 3107 3108 3109 3110 3111 3113 3114 3115 3117 3118 3119 3120 3120 3121 3121 3121 3122 3123 3123 3124 3124 3125 3125 3125 3126 3126 3126 3126 3126 3125 3125 3124 3124 3124 3124 3123 3123 3122 3121
3102 3102 3101 3101 3104 3105 3104 3105 3106 3107 3109 3110 3111 3114 3115 3116 3117 3117 3117 3115 3115 3115 3110 3104 3092 3081 3082 3087 3089 3092 3094 3095 3097 3098 3099 3100 3100 3100 3100 3099 3099 3100 3100 3101 3102 3103 3104 3105 3105 3106 3107 3108 3109 3111 3112 3114 3115 3116 3117 3117 3118 3118 3118 3119 3120 3120 3121 3121 3121 3122 3122 3122 3122 3122 3122 3122 3122 3121 3121 3121 3121 3120 3120 3119 3118 3117
3097 3097 3098 3098 3097 3097 3099 3102 3104 3104 3104 3104 3105 3106 3108 3111 3114 3115 3113 3110 3111 3110 3105 3103 3089 3075 3079 3085 3085 3089 3092 3092 3095 3095 3096 3097 3097 3097 3097 3097 3098 3098 3099 3100 3100 3101 3101 3101 3102 3102 3104 3105 3106 3108 3110 3111 3112 3113 3113 3114 3114 3115 3116 3117 3117 3117 3117 3117 3118 3118 3118 3119 3119 3119 3119 3118 3118 3118 3117 3117 3117 3116 3116 3115 3114 3113
3092 3094 3094 3093 3092 3094 3098 3100 3101 3102 3102 3102 3102 3103 3106 3108 3107 3108 3107 3105 3107 3104 3100 3103 3091 3071 3072 3080 3082 3086 3089 3089 3092 3093 3093 3094 3094 3095 3095 3095 3096 3096 3097 3098 3098 3099 3099 3099 3099 3099 3100 3102 3103 3105 3107 3108 3109 3110 3110 3111 3111 3112 3113 3113 3113 3113 3113 3113 3114 3114 3114 3115 3115 3115 3115 3114 3114 3114 3114 3113 3113 3112 3112 3111 3110 3110
3089 3091 3091 3091 3091 3092 3094 3095 3096 3097 3097 3098 3099 3101 3103 3102 3100 3103 3103 3102 3103 3098 3096 3103 3091 3067 3067 3076 3079 3083 3085 3087 3090 3090 3091 3092 3092 3093 3094 3094 3095 3095 3095 3096 3095 3096 3096 3096 3096 3097 3098 3099 3100 3102 3103 3104 3105 3106 3107 3108 3108 3109 3109 3109 3109 3109 3109 3110 3110 3110 3111 3111 3111 3111 3111 3111 3111 3110 3110 3109 3108 3108 3108 3107 3106 3105
3085 3086 3088 3090 3090 3090 3089 3090 3090 3091 3093 3094 3094 3096 3096 3096 3099 3100 3099 3101 3098 3088 3091 3099 3083 3063 3068 3076 3076 3080 3082 3083 3086 3087 3088 3089 3089 3091 3091 3092 3093 3092 3092 3092 3092 3092 3093 3093 3093 3094 3095 3096 3097 3098 3099 3100 3101 3102 3103 3104 3105 3105 3106 3105 3105 3105 3106 3106 3106 3106 3107 3107 3107 3107 3107 3107 3107 3106 3106 3105 3104 3104 3103 3102 3102 3101
3079 3079 3081 3084 3084 3082 3078 3078 3081 3084 3088 3089 3088 3089 3091 3093 3095 3094 3095 3097 3089 3080 3086 3089 3072 3062 3070 3074 3073 3077 3079 3079 3082 3084 3085 3086 3087 3087 3088 3089 3089 3089 3089 3089 3089 3089 3090 3090 3090 3091 3092 3092 3093 3094 3095 3096 3097 3098 3099 3100 3101 3101 3101 3101 3102 3102 3102 3102 3102 3103 3103 3104 3104 3103 3103 3103 3102 3102 3101 3101 3100 3100 3099 3098 3097 3097
3073 3072 3074 3075 3074 3071 3068 3070 3076 3079 3082 3082 3081 3084 3086 3086 3088 3090 3092 3086 3078 3080 3080 3071 3066 3066 3066 3068 3071 3073 3075 3077 3079 3080 3081 3082 3083 3084 3085 3085 3085 3085 3085 3085 3085 3085 3085 3086 3087 3087 3088 3088 3089 3090 3091 3092 3093 3094 3096 3096 3097 3097 3097 3098 3098 3098 3098 3098 3099 3099 3099 3100 3100 3099 3099 3099 3098 3097 3096 3096 3096 3095 3095 3094 3093 3092
3068 3067 3069 3069 3068 3067 3066 3069 3073 3073 3073 3074 3076 3078 3079 3080 3083 3083 3079 3071 3074 3081 3070 3058 3068 3069 3056 3060 3069 3069 3072 3075 3075 3076 3077 3078 3080 3081 3081 3081 3080 3081 3081 3080 3080 3081 3081 3082 3082 3083 3084 3084 3085 3086 3087 3088 3089 3091 3092 3092 3093 3093 3093 3094 3094 3094 3094 3094 3094 3095 3095 3095 3095 3095 3095 3094 3093 3092 3092 3092 3092 3091 3090 3089 3088 3088
3063 3063 3064 3065 3064 3063 3063 3066 3068 3068 3067 3068 3070 3072 3072 3075 3075 3069 3065 3065 3072 3075 3062 3055 3067 3062 3048 3056 3065 3064 3069 3071 3070 3072 3073 3074 3075 3075 3075 3076 3076 3076 3076 3076 3076 3076 3077 3078 3078 3079 3080 3080 3081 3082 3083 3084 3086 3087 3088 3088 3089 3089 3089 3090 3089 3089 3090 3090 3090 3091 3091 3091 3090 3090 3090 3089 3088 3088 3088 3087 3087 3086 3085 3085 3084 3083
3058 3058 3059 3060 3060 3058 3058 3061 3063 3064 3065 3064 3064 3066 3067 3066 3063 3058 3059 3065 3069 3067 3057 3055 3061 3054 3046 3054 3060 3059 3064 3066 3065 3067 3068 3068 3069 3070 3070 3071 3071 3072 3072 3071 3072 3072 3073 3074 3074 3075 3075 3076 3077 3077 3078 3080 3082 3084 3084 3084 3085 3085 3085 3085 3085 3085 3085 3085 3086 3086 3086 3085 3085 3085 3085 3084 3084 3084 3083 3083 3082 3082 3081 3080 3079 3078
3053 3053 3054 3057 3056 3052 3050 3054 3059 3060 3061 3059 3060 3060 3057 3053 3052 3054 3058 3062 3063 3059 3052 3055 3057 3045 3039 3048 3055 3056 3058 3060 3060 3061 3061 3062 3063 3064 3065 3066 3066 3067 3067 3067 3068 3068 3069 3069 3069 3070 3070 3071 3072 3073 3074 3076 3078 3079 3079 3080 3080 3080 3080 3080 3080 3080 3080 3080 3081 3081 3080 3080 3080 3080 3080 3079 3079 3079 3078 3078 3077 3077 3076 3075 3075 3074
3049 3049 3050 3053 3052 3045 3043 3048 3054 3055 3056 3057 3053 3047 3041 3042 3046 3050 3052 3052 3052 3051 3050 3054 3050 3036 3035 3045 3050 3050 3053 3054 3054 3054 3056 3057 3058 3058 3059 3060 3061 3062 3062 3063 3063 3064 3064 3065 3065 3065 3066 3067 3068 3068 3070 3072 3074 3074 3075 3075 3075 3075 3075 3075 3075 3075 3075 3076 3076 3075 3075 3075 3075 3075 3075 3074 3074 3074 3074 3073 3073 3072 3072 3071 3070 3069
3044 3045 3045 3048 3046 3040 3038 3043 3048 3050 3052 3048 3037 3029 3031 3038 3043 3044 3043 3042 3044 3046 3047 3045 3038 3032 3038 3044 3043 3044 3046 3047 3047 3049 3051 3051 3052 3053 3054 3055 3056 3056 3057 3058 3059 3059 3060 3060 3061 3062 3063 3063 3064 3064 3066 3068 3069 3070 3071 3071 3070 3070 3070 3070 3070 3070 3070 3071 3070 3070 3070 3070 3070 3070 3069 3069 3069 3069 3068 3068 3068 3067 3067 3066 3065 3064
3038 3039 3040 3041 3040 3037 3036 3039 3043 3045 3040 3030 3022 3023 3030 3035 3036 3036 3036 3036 3038 3039 3038 3035 3032 3033 3037 3038 3036 3038 3039 3040 3042 3044 3044 3045 3046 3047 3048 3049 3050 3051 3052 3053 3054 3054 3055 3055 3057 3057 3058 3058 3058 3059 3062 3063 3064 3065 3065 3065 3065 3065 3065 3065 3065 3065 3065 3065 3065 3064 3065 3065 3064 3064 3064 3064 3063 3063 3063 3063 3063 3062 3062 3061 3060 3059
3033 3034 3035 3035 3035 3034 3034 3036 3037 3032 3023 3017 3019 3024 3027 3026 3028 3031 3031 3031 3034 3033 3031 3030 3029 3028 3031 3032 3033 3033 3034 3035 3037 3036 3036 3037 3038 3041 3043 3044 3045 3046 3047 3048 3049 3049 3049 3050 3051 3051 3052 3053 3053 3055 3057 3058 3059 3059 3059 3060 3060 3060 3060 3060 3059 3060 3060 3060 3059 3059 3059 3059 3059 3059 3058 3058 3058 3057 3057 3058 3057 3057 3056 3055 3055 3054
3027 3029 3029 3029 3030 3030 3030 3029 3024 3017 3014 3016 3018 3018 3017 3019 3023 3026 3025 3025 3027 3027 3026 3025 3023 3024 3026 3028 3029 3029 3030 3031 3030 3029 3029 3030 3032 3035 3037 3038 3039 3040 3042 3043 3044 3045 3045 3045 3045 3046 3046 3047 3048 3050 3051 3052 3053 3053 3053 3054 3054 3054 3054 3054 3054 3054 3054 3054 3054 3054 3054 3054 3054 3053 3053 3052 3052 3052 3052 3052 3052 3052 3051 3050 3049 3049
3022 3023 3023 3023 3023 3023 3023 3020 3016 3014 3013 3012 3010 3010 3011 3015 3018 3020 3019 3017 3018 3020 3020 3020 3019 3020 3022 3023 3024 3025 3026 3025 3023 3022 3022 3024 3028 3030 3031 3032 3034 3035 3037 3039 3039 3039 3040 3039 3039 3040 3041 3042 3043 3044 3045 3046 3047 3047 3048 3048 3048 3048 3048 3048 3049 3049 3049 3048 3049 3049 3049 3049 3048 3048 3047 3047 3047 3047 3047 3047 3047 3046 3045 3044 3044 3043
3015 3016 3017 3017 3015 3016 3017 3015 3015 3015 3009 3002 3002 3006 3009 3011 3014 3016 3015 3011 3009 3011 3012 3014 3016 3015 3016 3018 3019 3020 3021 3019 3015 3015 3018 3021 3023 3025 3026 3028 3029 3030 3032 3033 3033 3034 3034 3034 3034 3035 3036 3037 3038 3039 3040 3041 3042 3042 3042 3042 3043 3043 3043 3043 3044 3044 3043 3044 3044 3044 3043 3043 3043 3042 3042 3042 3042 3042 3042 3041 3041 3040 3040 3039 3038 3038
3008 3010 3012 3012 3011 3012 3012 3010 3009 3007 3001 2998 3000 3002 3004 3007 3009 3012 3011 3004 3000 3003 3005 3008 3010 3011 3012 3014 3014 3015 3015 3012 3009 3011 3016 3017 3018 3020 3023 3024 3025 3026 3027 3028 3029 3029 3029 3029 3029 3030 3031 3033 3034 3035 3036 3036 3036 3037 3037 3037 3038 3038 3038 3039 3039 3039 3038 3038 3038 3038 3037 3037 3037 3037 3037 3037 3037 3037 3037 3036 3036 3035 3035 3034 3033 3033
3002 3005 3006 3006 3005 3006 3006 3004 3002 2999 2997 2998 2998 2998 3000 3003 3006 3009 3006 2998 2995 2998 3000 3002 3004 3006 3008 3009 3009 3010 3009 3007 3006 3009 3012 3013 3015 3017 3019 3020 3021 3022 3022 3023 3024 3024 3024 3024 3024 3025 3027 3028 3029 3030 3031 3031 3031 3032 3032 3033 3033 3033 3034 3035 3034 3033 3033 3033 3033 3033 3033 3033 3033 3033 3033 3033 3032 3032 3031 3031 3031 3030 3030 3029 3029 3028
2996 2998 2999 2998 2998 3000 3000 2998 2996 2994 2993 2995 2996 2995 2998 3000 3001 3001 2997 2993 2994 2996 2996 2997 2999 3000 3002 3003 3004 3004 3005 3005 3005 3006 3008 3010 3011 3013 3014 3015 3016 3016 3017 3018 3018 3019 3019 3019 3020 3021 3022 3023 3024 3025 3026 3027 3027 3028 3028 3028 3029 3030 3030 3029 3028 3028 3028 3028 3028 3028 3028 3028 3028 3028 3028 3028 3027 3027 3026 3026 3026 3025 3025 3024 3024 3023
2989 2991 2992 2993 2993 2994 2994 2994 2993 2990 2989 2990 2992 2993 2994 2996 2994 2991 2990 2991 2993 2993 2993 2994 2995 2995 2997 2998 2999 2999 3000 3001 3002 3002 3004 3006 3006 3008 3010 3010 3011 3012 3013 3013 3013 3014 3015 3015 3017 3018 3018 3019 3021 3021 3022 3023 3023 3023 3024 3024 3025 3025 3024 3023 3023 3024 3024 3024 3024 3024 3024 3024 3023 3023 3023 3022 3022 3022 3022 3022 3021 3021 3020 3020 3019 3018
2981 2984 2985 2986 2987 2989 2990 2990 2989 2985 2982 2984 2987 2989 2989 2989 2987 2987 2988 2989 2989 2990 2990 2990 2990 2991 2992 2993 2994 2995 2996 2997 2998 2999 3000 3001 3002 3004 3005 3006 3007 3008 3008 3009 3009 3010 3011 3012 3013 3013 3014 3016 3016 3017 3018 3018 3018 3019 3019 3020 3020 3020 3019 3019 3020 3020 3020 3020 3020 3020 3019 3019 3018 3018 3018 3018 3017 3017 3017 3017 3016 3016 3016 3015 3014 3014
2975 2977 2977 2978 2980 2982 2982 2981 2980 2978 2979 2981 2983 2984 2985 2985 2984 2986 2986 2986 2986 2987 2987 2987 2987 2988 2989 2989 2990 2991 2992 2993 2994 2995 2996 2997 2999 3000 3001 3001 3002 3002 3003 3004 3004 3005 3006 3007 3008 3009 3010 3011 3012 3013 3013 3014 3014 3015 3015 3016 3015 3015 3015 3015 3015 3015 3015 3015 3015 3015 3014 3014 3013 3013 3013 3013 3013 3012 3012 3012 3012 3011 3011 3010 3009 3008
2968 2969 2970 2972 2973 2974 2974 2974 2974 2975 2977 2978 2979 2980 2982 2982 2982 2983 2983 2983 2984 2984 2984 2985 2985 2985 2985 2986 2987 2988 2989 2991 2991 2992 2993 2994 2994 2995 2996 2997 2997 2998 2999 2999 3000 3001 3002 3003 3004 3005 3006 3007 3008 3008 3009 3009 3010 3010 3011 3011 3010 3010 3011 3011 3011 3011 3011 3010 3010 3010 3009 3009 3009 3009 3009 3009 3008 3008 3008 3007 3007 3006 3006 3005 3004 3003
2964 2965 2966 2968 2969 2969 2969 2970 2971 2972 2973 2974 2975 2976 2977 2978 2979 2980 2980 2981 2981 2982 2982 2983 2982 2983 2983 2984 2984 2985 2986 2987 2988 2989 2989 2990 2991 2992 2992 2993 2994 2994 2995 2995 2996 2997 2998 2999 3001 3002 3002 3003 3004 3004 3005 3005 3005 3006 3006 3006 3006 3006 3006 3006 3006 3006 3006 3005 3005 3005 3005 3005 3005 3004 3004 3004 3003 3003 3003 3002 3001 3001 3000 2999 2999 2998
2960 2961 2962 2963 2964 2965 2965 2966 2967 2968 2969 2970 2971 2972 2973 2974 2976 2977 2977 2978 2979 2980 2980 2980 2980 2981 2981 2981 2982 2983 2983 2983 2984 2985 2986 2987 2988 2989 2989 2990 2991 2991 2992 2993 2994 2995 2996 2997 2998 2998 2999 3000 3000 3000 3001 3001 3001 3001 3001 3001 3002 3002 3002 3002 3002 3002 3001 3001 3001 3001 3001 3001 3000 3000 3000 2999 2999 2998 2998 2997 2996 2996 2995 2994 2993 2992
2955 2957 2958 2958 2959 2961 2961 2962 2963 2964 2965 2967 2967 2968 2970 2971 2972 2974 2975 2976 2976 2977 2978 2978 2978 2978 2978 2978 2979 2979 2980 2981 2981 2982 2983 2984 2985 2985 2986 2987 2987 2988 2989 2990 2991 2992 2993 2994 2994 2995 2996 2996 2996 2996 2996 2996 2997 2997 2997 2997 2998 2997 2997 2997 2997 2997 2997 2997 2997 2997 2997 2996 2996 2996 2995 2995 2994 2993 2993 2992 2991 2990 2989 2989 2988 2987
2952 2953 2954 2955 2956 2956 2957 2959 2961 2961 2962 2963 2964 2965 2967 2968 2970 2971 2972 2973 2973 2974 2974 2974 2974 2974 2975 2975 2976 2977 2978 2979 2980 2980 2981 2982 2982 2983 2984 2984 2985 2986 2986 2987 2988 2989 2990 2991 2991 2992 2992 2992 2992 2992 2992 2992 2993 2993 2993 2994 2993 2993 2994 2994 2993 2993 2993 2993 2993 2993 2992 2992 2991 2991 2990 2990 2989 2988 2987 2987 2986 2985 2984 2983 2982 2981
2948 2949 2951 2952 2953 2954 2955 2957 2958 2958 2959 2960 2961 2962 2964 2965 2966 2967 2968 2969 2970 2970 2970 2970 2971 2971 2972 2972 2973 2974 2975 2976 2977 2978 2979 2979 2980 2981 2981 2982 2983 2983 2984 2985 2986 2986 2987 2988 2988 2988 2988 2988 2989 2989 2989 2989 2989 2989 2989 2989 2989 2989 2990 2989 2989 2989 2989 2989 2988 2988 2987 2987 2986 2986 2985 2985 2984 2983 2982 2981 2980 2979 2978 2977 2976 2974
2944 2946 2948 2949 2950 2952 2953 2954 2954 2955 2956 2957 2958 2959 2960 2961 2962 2963 2965 2966 2966 2966 2967 2967 2967 2968 2969 2970 2971 2972 2972 2974 2974 2975 2976 2977 2977 2978 2979 2980 2980 2981 2982 2982 2983 2984 2984 2985 2985 2985 2985 2985 2985 2985 2985 2985 2985 2985 2985 2985 2986 2986 2985 2985 2985 2985 2985 2984 2984 2983 2983 2982 2981 2981 2980 2979 2978 2977 2976 2975 2974 2973 2972 2971 2969 2968